EA1AHA-13 Weather Reports


Display with metric or nautical units.
time (UTC)temp
F
wind
direction
speed
MPH
gust
MPH
rain 1hr
in
rain 24hr
in
rain mn
in
humidity
%
barometer
mb
20260506205140 55 225 3.0 3.0 0.01 0.05 0.05 91 1012.8
20260506204117 56 225 2.0 3.0 0.02 0.05 0.05 89 1012.8
20260506203141 56 0.0 0.0 0.02 0.05 0.05 89 1012.6
20260506202116 56 67 0.0 1.0 0.02 0.05 0.05 89 1012.6
20260506201141 56 0.0 0.0 0.01 0.04 0.04 88 1012.5
20260506200117 56 0.0 0.0 0.01 0.04 0.04 88 1012.5
20260506195140 56 0.0 0.0 0.02 0.04 0.04 87 1012.4
20260506194116 56 0.0 1.0 0.01 0.03 0.03 87 1012.4
20260506193141 57 112 0.0 2.0 0.01 0.03 0.03 87 1012.3
20260506192117 57 90 0.0 2.0 0.01 0.03 0.03 87 1012.5
20260506191141 57 90 0.0 2.0 0.01 0.03 0.03 87 1012.3
20260506190116 56 90 0.0 2.0 0.01 0.03 0.03 87 1012.5
20260506185140 57 112 3.0 6.0 0.00 0.02 0.02 86 1012.3
20260506184117 58 67 3.0 4.0 0.00 0.02 0.02 84 1012.1
20260506183141 57 0 4.0 6.0 0.00 0.02 0.02 82 1012.2
20260506182116 58 45 3.0 8.0 0.00 0.02 0.02 81 1012.2
20260506181141 58 22 5.0 8.0 0.00 0.02 0.02 81 1012.5
20260506180117 58 337 3.0 4.0 0.00 0.02 0.02 81 1012.3
20260506175141 58 22 5.0 8.0 0.00 0.02 0.02 80 1012.2
20260506174117 59 0 3.0 6.0 0.00 0.02 0.02 80 1012.3
20260506173141 59 0 4.0 6.0 0.00 0.02 0.02 80 1012.4
20260506172118 59 0 1.0 4.0 0.00 0.02 0.02 79 1012.4
20260506171140 59 22 2.0 6.0 0.00 0.02 0.02 79 1012.3
20260506170117 58 337 4.0 6.0 0.00 0.02 0.02 79 1012.5
20260506165141 59 0 4.0 8.0 0.00 0.02 0.02 76 1012.3
20260506164117 59 67 3.0 6.0 0.00 0.02 0.02 75 1012.4
20260506163140 60 270 6.0 9.0 0.00 0.02 0.02 76 1012.1
20260506162117 59 247 3.0 8.0 0.00 0.02 0.02 77 1012.4
20260506161140 59 315 6.0 10.0 0.00 0.02 0.02 75 1012.4
20260506160117 60 337 8.0 10.0 0.00 0.02 0.02 74 1012.0
20260506155141 59 337 8.0 12.0 0.00 0.02 0.02 74 1012.3
20260506154117 60 45 3.0 4.0 0.00 0.02 0.02 71 1012.3
20260506153140 60 22 6.0 8.0 0.00 0.02 0.02 73 1012.5
20260506152117 62 22 2.0 3.0 0.00 0.02 0.02 68 1012.6
20260506151141 60 112 3.0 6.0 0.00 0.02 0.02 68 1012.5
20260506150117 60 337 3.0 9.0 0.00 0.02 0.02 70 1012.8
20260506145140 60 22 6.0 8.0 0.00 0.02 0.02 72 1012.8
20260506144117 60 157 3.0 9.0 0.00 0.02 0.02 68 1012.8
20260506143140 60 337 5.0 10.0 0.00 0.02 0.02 69 1013.0
20260506142116 59 225 4.0 8.0 0.00 0.02 0.02 75 1012.9
20260506141141 59 337 8.0 11.0 0.00 0.02 0.02 75 1013.0
20260506140116 59 337 3.0 8.0 0.00 0.02 0.02 74 1013.1
20260506135141 58 0 12.0 15.0 0.00 0.02 0.02 73 1013.0
20260506134117 58 337 5.0 9.0 0.00 0.02 0.02 75 1013.2
20260506133140 59 315 11.0 15.0 0.00 0.02 0.02 74 1013.3
20260506132117 60 0 5.0 15.0 0.00 0.02 0.02 71 1013.3
20260506131140 60 0 12.0 15.0 0.00 0.02 0.02 72 1013.4
20260506130117 60 337 14.0 17.0 0.00 0.02 0.02 70 1013.2
20260506125140 61 22 10.0 13.0 0.00 0.02 0.02 68 1013.2
20260506124117 61 67 3.0 6.0 0.00 0.02 0.02 65 1013.3
20260506123140 62 337 3.0 10.0 0.00 0.02 0.02 66 1013.4
20260506122116 60 315 5.0 10.0 0.00 0.02 0.02 69 1013.4
20260506121141 62 270 6.0 15.0 0.00 0.02 0.02 68 1013.6
20260506120118 60 22 9.0 12.0 0.00 0.02 0.02 71 1013.2
20260506115140 61 0 3.0 10.0 0.00 0.02 0.02 67 1013.6
20260506114116 60 180 5.0 10.0 0.00 0.02 0.02 68 1013.6
20260506113140 60 0 3.0 6.0 0.00 0.02 0.02 70 1013.7
20260506112117 60 337 3.0 4.0 0.00 0.02 0.02 72 1013.3
20260506111140 60 202 4.0 9.0 0.00 0.02 0.02 73 1013.7
20260506110116 60 0 6.0 12.0 0.00 0.02 0.02 68 1013.6
20260506104812 58 0 8.0 15.0 0.00 0.02 0.02 75 1013.5
20260506103628 59 22 7.0 11.0 0.00 0.02 0.02 73 1013.6
20260506102605 59 315 7.0 11.0 0.00 0.02 0.02 70 1013.8
20260506101629 59 112 3.0 6.0 0.00 0.02 0.02 72 1013.7
20260506100606 60 67 0.0 2.0 0.00 0.02 0.02 71 1013.4
20260506095628 58 270 6.0 8.0 0.00 0.02 0.02 71 1013.6
20260506094605 59 112 4.0 8.0 0.00 0.02 0.02 71 1013.8
20260506093628 58 292 6.0 8.0 0.00 0.02 0.02 73 1013.7
20260506092605 58 270 3.0 6.0 0.00 0.02 0.02 74 1013.6
20260506091629 57 292 4.0 6.0 0.00 0.02 0.02 75 1013.6
20260506090605 57 315 2.0 3.0 0.00 0.02 0.02 76 1013.3
20260506085628 57 270 3.0 4.0 0.00 0.02 0.02 77 1013.3
20260506084605 56 247 5.0 8.0 0.00 0.02 0.02 76 1013.6
20260506083628 56 270 2.0 4.0 0.00 0.02 0.02 79 1013.5
20260506082605 55 270 3.0 4.0 0.00 0.02 0.02 79 1013.8
20260506081629 55 247 3.0 4.0 0.00 0.02 0.02 80 1013.6
20260506080605 55 247 3.0 4.0 0.00 0.02 0.02 79 1013.5
20260506072605 54 270 3.0 4.0 0.00 0.02 0.02 82 1013.6
20260506071628 54 270 3.0 3.0 0.00 0.02 0.02 81 1013.6
20260506070604 53 270 1.0 2.0 0.00 0.02 0.02 81 1013.6
20260506061628 52 270 4.0 6.0 0.00 0.02 0.02 81 1013.3
20260506060605 52 247 3.0 6.0 0.00 0.02 0.02 82 1013.0
20260506050605 51 0.0 0.0 0.00 0.02 0.02 86 1012.7
20260506044604 51 247 0.0 2.0 0.00 0.02 0.02 86 1012.9
20260506043629 51 225 0.0 1.0 0.00 0.02 0.02 86 1012.9
20260506042604 51 0.0 0.0 0.00 0.02 0.02 85 1012.9
20260506041629 51 0.0 1.0 0.00 0.02 0.02 86 1012.9
20260506040604 52 202 5.0 6.0 0.00 0.02 0.02 85 1012.9
20260506035629 52 270 3.0 6.0 0.00 0.02 0.02 85 1013.1
20260506034605 51 0.0 1.0 0.00 0.02 0.02 87 1013.3
20260506033629 51 0.0 1.0 0.00 0.02 0.02 86 1013.4
20260506032604 52 225 0.0 2.0 0.00 0.02 0.02 85 1013.1
20260506031628 52 270 4.0 6.0 0.00 0.02 0.02 84 1013.3
20260506030605 51 247 3.0 4.0 0.00 0.02 0.02 86 1013.2
20260506025629 51 225 2.0 3.0 0.00 0.02 0.02 85 1013.2
20260506024653 51 202 3.0 6.0 0.00 0.02 0.02 87 1013.2
20260506023628 51 225 1.0 2.0 0.00 0.02 0.02 86 1013.1
20260506022604 52 247 3.0 4.0 0.00 0.02 0.02 85 1013.2
20260506021629 52 225 3.0 6.0 0.00 0.02 0.02 86 1013.2
20260506020604 51 270 3.0 4.0 0.00 0.02 0.02 86 1013.3
20260506015628 52 270 3.0 4.0 0.00 0.02 0.02 86 1013.6
20260506014604 52 247 4.0 6.0 0.00 0.02 0.02 85 1013.4
20260506013629 52 270 3.0 6.0 0.00 0.02 0.02 85 1013.4
20260506012605 51 292 3.0 4.0 0.00 0.02 0.02 87 1013.5
20260506011629 51 225 6.0 8.0 0.00 0.02 0.02 88 1013.4
20260506010604 51 225 5.0 9.0 0.01 0.02 0.02 88 1013.7
20260506005628 51 247 5.0 6.0 0.01 0.02 0.02 88 1013.9
20260506004605 51 225 6.0 9.0 0.01 0.02 0.02 89 1013.9
20260506003628 52 225 5.0 9.0 0.01 0.02 0.02 89 1013.9
20260506002605 52 247 2.0 3.0 0.01 0.02 0.02 90 1014.2
20260506001629 52 0.0 0.0 0.01 0.02 0.02 90 1014.3
20260506000605 52 292 3.0 4.0 0.00 0.01 0.01 89 1014.4
20260505235629 52 247 4.0 6.0 0.00 0.01 0.01 89 1014.3
20260505234605 52 225 4.0 6.0 0.00 0.01 0.01 88 1014.4
20260505233629 52 247 6.0 9.0 0.00 0.01 0.01 88 1014.2
20260505232652 52 247 8.0 10.0 0.00 0.01 0.01 88 1014.1
20260505231629 52 225 5.0 6.0 0.01 0.01 0.01 89 1014.4
20260505230604 52 247 6.0 9.0 0.01 0.01 0.01 90 1014.3
20260505225629 53 202 5.0 6.0 0.01 0.01 0.01 90 1014.3
20260505224605 53 247 3.0 6.0 0.01 0.01 0.01 90 1014.3
20260505223629 53 270 4.0 6.0 0.01 0.01 0.01 89 1014.2
20260505222605 53 247 4.0 9.0 0.01 0.01 0.01 89 1014.2
20260505221628 54 270 4.0 6.0 0.00 0.00 0.00 89 1014.6
20260505220604 54 247 6.0 8.0 0.00 0.00 0.00 87 1014.5
20260505215629 54 270 4.0 6.0 0.00 0.00 0.00 84 1014.6
20260505214605 54 225 4.0 6.0 0.00 0.00 0.00 86 1014.4
20260505213630 54 247 5.0 6.0 0.00 0.00 0.00 87 1014.6
20260505212605 55 247 5.0 6.0 0.00 0.00 0.00 85 1014.3
20260505211629 55 270 4.0 6.0 0.00 0.00 0.00 85 1014.5
20260505210605 55 247 5.0 8.0 0.00 0.00 0.00 85 1014.5